| time (UTC) | temp C | wind direction | speed KPH | gust KPH | rain 1hr cm | rain 24hr cm | rain mn cm | humidity % | barometer mb |
| 20260510103309 | 13 | 79 | 11.3 | 22.5 | 0.00 | 0.00 | 0.00 | 90 | 1011.3 |
| 20260510102309 | 13 | 72 | 9.7 | 20.9 | 0.00 | 0.00 | 0.00 | 90 | 1011.3 |
| 20260510100309 | 13 | 60 | 16.1 | 25.7 | 0.00 | 0.00 | 0.00 | 89 | 1011.2 |
| 20260510095309 | 13 | 83 | 14.5 | 24.1 | 0.00 | 0.00 | 0.00 | 89 | 1011.2 |
| 20260510094309 | 13 | 93 | 11.3 | 20.9 | 0.00 | 0.00 | 0.00 | 89 | 1011.1 |
| 20260510093309 | 13 | 49 | 17.7 | 32.2 | 0.00 | 0.00 | 0.00 | 89 | 1011.0 |
| 20260510092309 | 13 | 103 | 9.7 | 22.5 | 0.00 | 0.00 | 0.00 | 89 | 1011.2 |
| 20260510091309 | 13 | 79 | 19.3 | 27.4 | 0.00 | 0.00 | 0.00 | 89 | 1011.1 |
| 20260510085309 | 13 | 93 | 12.9 | 27.4 | 0.00 | 0.00 | 0.00 | 89 | 1011.1 |
| 20260510084309 | 13 | 72 | 14.5 | 24.1 | 0.00 | 0.00 | 0.00 | 90 | 1011.2 |
| 20260510083309 | 13 | 84 | 16.1 | 29.0 | 0.00 | 0.00 | 0.00 | 90 | 1011.2 |
| 20260510082309 | 13 | 101 | 14.5 | 32.2 | 0.00 | 0.00 | 0.00 | 91 | 1011.2 |
| 20260510080309 | 13 | 49 | 17.7 | 29.0 | 0.00 | 0.00 | 0.00 | 92 | 1011.2 |
| 20260510075309 | 12 | 120 | 12.9 | 32.2 | 0.00 | 0.00 | 0.00 | 93 | 1011.3 |
| 20260510074309 | 12 | 39 | 17.7 | 35.4 | 0.00 | 0.00 | 0.00 | 93 | 1011.3 |
| 20260510073309 | 13 | 70 | 16.1 | 25.7 | 0.00 | 0.00 | 0.00 | 93 | 1011.2 |
| 20260510072309 | 13 | 94 | 14.5 | 22.5 | 0.00 | 0.00 | 0.00 | 94 | 1011.0 |
| 20260510071309 | 12 | 84 | 11.3 | 27.4 | 0.00 | 0.00 | 0.00 | 94 | 1011.1 |
| 20260510070309 | 12 | 101 | 17.7 | 27.4 | 0.00 | 0.00 | 0.00 | 94 | 1011.0 |
| 20260510065309 | 12 | 63 | 19.3 | 29.0 | 0.00 | 0.00 | 0.00 | 95 | 1011.0 |
| 20260510064309 | 12 | 47 | 20.9 | 29.0 | 0.00 | 0.00 | 0.00 | 95 | 1011.0 |
| 20260510063309 | 12 | 96 | 12.9 | 20.9 | 0.00 | 0.00 | 0.00 | 96 | 1011.0 |
| 20260510062309 | 12 | 60 | 12.9 | 22.5 | 0.00 | 0.00 | 0.00 | 96 | 1010.9 |
| 20260510061309 | 12 | 101 | 14.5 | 24.1 | 0.00 | 0.00 | 0.00 | 96 | 1010.9 |
| 20260510060309 | 12 | 77 | 14.5 | 24.1 | 0.00 | 0.00 | 0.00 | 96 | 1010.8 |
| 20260510055309 | 12 | 117 | 12.9 | 27.4 | 0.00 | 0.00 | 0.00 | 96 | 1010.7 |
| 20260510054309 | 12 | 65 | 17.7 | 25.7 | 0.00 | 0.00 | 0.00 | 97 | 1010.6 |
| 20260510053309 | 12 | 84 | 14.5 | 27.4 | 0.00 | 0.00 | 0.00 | 97 | 1010.6 |
| 20260510052309 | 12 | 51 | 9.7 | 20.9 | 0.00 | 0.00 | 0.00 | 97 | 1010.5 |
| 20260510050309 | 12 | 84 | 16.1 | 25.7 | 0.00 | 0.00 | 0.00 | 97 | 1010.6 |
| 20260510045309 | 12 | 77 | 11.3 | 20.9 | 0.00 | 0.00 | 0.00 | 97 | 1010.6 |
| 20260510044309 | 12 | 108 | 14.5 | 25.7 | 0.00 | 0.00 | 0.00 | 97 | 1010.5 |
| 20260510042313 | 12 | 61 | 12.9 | 27.4 | 0.00 | 0.00 | 0.00 | 97 | 1010.5 |
| 20260510041312 | 12 | 93 | 16.1 | 30.6 | 0.00 | 0.00 | 0.00 | 97 | 1010.6 |
| 20260510040311 | 12 | 49 | 14.5 | 27.4 | 0.00 | 0.00 | 0.00 | 97 | 1010.6 |
| 20260510033312 | 12 | 65 | 14.5 | 25.7 | 0.00 | 0.00 | 0.00 | 97 | 1010.6 |
| 20260510031312 | 12 | 117 | 19.3 | 27.4 | 0.00 | 0.00 | 0.00 | 97 | 1010.7 |
| 20260510030312 | 12 | 63 | 14.5 | 32.2 | 0.00 | 0.00 | 0.00 | 97 | 1010.7 |
| 20260510024311 | 12 | 76 | 14.5 | 27.4 | 0.00 | 0.00 | 0.00 | 97 | 1010.8 |
| 20260510023312 | 12 | 79 | 14.5 | 25.7 | 0.00 | 0.00 | 0.00 | 97 | 1010.9 |
| 20260510022311 | 12 | 86 | 12.9 | 24.1 | 0.00 | 0.00 | 0.00 | 98 | 1011.1 |
| 20260510021311 | 12 | 79 | 17.7 | 25.7 | 0.00 | 0.00 | 0.00 | 98 | 1011.1 |
| 20260510020311 | 12 | 72 | 14.5 | 19.3 | 0.00 | 0.00 | 0.00 | 98 | 1011.2 |
| 20260510015311 | 12 | 70 | 12.9 | 22.5 | 0.00 | 0.00 | 0.00 | 98 | 1011.4 |
| 20260510014311 | 12 | 89 | 12.9 | 20.9 | 0.00 | 0.00 | 0.00 | 98 | 1011.5 |
| 20260510013311 | 12 | 86 | 8.0 | 19.3 | 0.00 | 0.00 | 0.00 | 98 | 1011.6 |
| 20260510012311 | 12 | 114 | 11.3 | 22.5 | 0.00 | 0.00 | 0.00 | 97 | 1011.6 |
| 20260510011311 | 12 | 79 | 8.0 | 19.3 | 0.00 | 0.00 | 0.00 | 97 | 1011.6 |
| 20260510003311 | 13 | 100 | 6.4 | 14.5 | 0.00 | 0.00 | 0.00 | 97 | 1011.8 |
| 20260510002311 | 13 | 117 | 6.4 | 12.9 | 0.00 | 0.00 | 0.00 | 97 | 1011.9 |
| 20260510001311 | 13 | 131 | 6.4 | 12.9 | 0.00 | 0.00 | 0.00 | 97 | 1012.2 |
| 20260509234311 | 13 | 94 | 6.4 | 9.7 | 0.00 | 0.00 | 0.00 | 97 | 1012.1 |
| 20260509233311 | 13 | 58 | 6.4 | 11.3 | 0.00 | 0.00 | 0.00 | 97 | 1012.2 |
| 20260509232312 | 12 | 79 | 6.4 | 11.3 | 0.00 | 0.00 | 0.00 | 96 | 1012.2 |
| 20260509231311 | 12 | 59 | 4.8 | 8.0 | 0.00 | 0.00 | 0.00 | 96 | 1012.3 |
| 20260509230311 | 13 | 124 | 1.6 | 4.8 | 0.00 | 0.00 | 0.00 | 96 | 1012.3 |
| 20260509225311 | 13 | 321 | 1.6 | 4.8 | 0.00 | 0.00 | 0.00 | 96 | 1012.4 |
| 20260509224311 | 13 | 68 | 1.6 | 6.4 | 0.00 | 0.00 | 0.00 | 96 | 1012.5 |
| 20260509223311 | 13 | 9 | 1.6 | 6.4 | 0.00 | 0.00 | 0.00 | 96 | 1012.7 |
| 20260509221311 | 13 | 46 | 1.6 | 8.0 | 0.00 | 0.00 | 0.00 | 96 | 1012.8 |
| 20260509220311 | 13 | 72 | 4.8 | 8.0 | 0.00 | 0.00 | 0.00 | 96 | 1012.9 |
| 20260509215311 | 13 | 86 | 6.4 | 9.7 | 0.00 | 0.69 | 0.69 | 96 | 1012.9 |
| 20260509214311 | 13 | 60 | 4.8 | 14.5 | 0.00 | 0.69 | 0.69 | 96 | 1012.9 |
| 20260509213311 | 13 | 68 | 4.8 | 8.0 | 0.00 | 0.69 | 0.69 | 96 | 1012.8 |
| 20260509212311 | 13 | 102 | 4.8 | 9.7 | 0.00 | 0.69 | 0.69 | 96 | 1012.8 |
| 20260509211312 | 13 | 65 | 6.4 | 12.9 | 0.00 | 0.69 | 0.69 | 95 | 1012.9 |
| 20260509210311 | 13 | 121 | 9.7 | 14.5 | 0.03 | 0.69 | 0.69 | 95 | 1013.1 |
| 20260509205311 | 13 | 122 | 9.7 | 16.1 | 0.05 | 0.69 | 0.69 | 95 | 1013.0 |
| 20260509202311 | 13 | 60 | 4.8 | 17.7 | 0.56 | 0.69 | 0.69 | 95 | 1012.9 |
| 20260509201311 | 13 | 63 | 6.4 | 12.9 | 0.56 | 0.69 | 0.69 | 95 | 1012.7 |
| 20260509200311 | 13 | 89 | 6.4 | 11.3 | 0.53 | 0.66 | 0.66 | 94 | 1012.5 |
| 20260509195311 | 13 | 79 | 14.5 | 20.9 | 0.51 | 0.61 | 0.61 | 93 | 1012.6 |
| 20260509194311 | 12 | 121 | 4.8 | 8.0 | 0.00 | 0.03 | 0.38 | 94 | 1013.3 |
| 20260509193311 | 14 | 84 | 11.3 | 22.5 | 0.20 | 0.33 | 0.33 | 90 | 1013.0 |
| 20260509191311 | 15 | 171 | 4.8 | 11.3 | 0.00 | 0.13 | 0.13 | 86 | 1013.1 |
| 20260509190311 | 15 | 139 | 3.2 | 6.4 | 0.00 | 0.13 | 0.13 | 86 | 1012.7 |
| 20260509185311 | 15 | 95 | 4.8 | 6.4 | 0.00 | 0.13 | 0.13 | 86 | 1012.5 |
| 20260509184311 | 15 | 72 | 4.8 | 12.9 | 0.00 | 0.13 | 0.13 | 87 | 1012.2 |
| 20260509183311 | 15 | 71 | 4.8 | 11.3 | 0.00 | 0.13 | 0.13 | 87 | 1012.4 |
| 20260509181311 | 15 | 46 | 1.6 | 6.4 | 0.00 | 0.13 | 0.13 | 87 | 1012.4 |
| 20260509180311 | 15 | 13 | 3.2 | 9.7 | 0.00 | 0.13 | 0.13 | 86 | 1012.2 |
| 20260509175311 | 15 | 347 | 4.8 | 9.7 | 0.00 | 0.13 | 0.13 | 86 | 1012.0 |
| 20260509174311 | 15 | 8 | 4.8 | 9.7 | 0.00 | 0.13 | 0.13 | 87 | 1012.0 |
| 20260509173311 | 15 | 59 | 3.2 | 4.8 | 0.00 | 0.13 | 0.13 | 87 | 1012.0 |
| 20260509172311 | 15 | 46 | 1.6 | 6.4 | 0.00 | 0.13 | 0.13 | 87 | 1011.9 |
| 20260509171310 | 15 | 206 | 1.6 | 4.8 | 0.00 | 0.13 | 0.13 | 87 | 1012.0 |
| 20260509170311 | 16 | 346 | 4.8 | 9.7 | 0.00 | 0.13 | 0.13 | 87 | 1012.0 |
| 20260509165310 | 16 | 1 | 4.8 | 8.0 | 0.00 | 0.13 | 0.13 | 87 | 1012.0 |
| 20260509164310 | 15 | 1 | 6.4 | 12.9 | 0.00 | 0.13 | 0.13 | 86 | 1012.0 |
| 20260509162310 | 16 | 83 | 4.8 | 16.1 | 0.00 | 0.13 | 0.13 | 87 | 1012.1 |
| 20260509160310 | 16 | 32 | 1.6 | 8.0 | 0.00 | 0.13 | 0.13 | 86 | 1011.9 |
| 20260509155310 | 16 | 73 | 6.4 | 11.3 | 0.00 | 0.13 | 0.13 | 84 | 1012.2 |
| 20260509154310 | 16 | 46 | 3.2 | 8.0 | 0.00 | 0.13 | 0.13 | 83 | 1012.3 |
| 20260509153310 | 16 | 1 | 1.6 | 8.0 | 0.00 | 0.13 | 0.13 | 83 | 1012.4 |
| 20260509151310 | 16 | 28 | 4.8 | 9.7 | 0.00 | 0.13 | 0.13 | 82 | 1012.6 |
| 20260509150310 | 17 | 245 | 3.2 | 9.7 | 0.00 | 0.13 | 0.13 | 83 | 1012.6 |
| 20260509145310 | 17 | 331 | 4.8 | 12.9 | 0.00 | 0.13 | 0.13 | 85 | 1012.6 |
| 20260509144310 | 17 | 327 | 4.8 | 9.7 | 0.00 | 0.13 | 0.13 | 86 | 1012.6 |
| 20260509143310 | 16 | 284 | 3.2 | 8.0 | 0.00 | 0.13 | 0.13 | 87 | 1012.6 |
| 20260509142310 | 16 | 1 | 3.2 | 8.0 | 0.00 | 0.13 | 0.13 | 90 | 1012.7 |
| 20260509141310 | 16 | 8 | 4.8 | 12.9 | 0.00 | 0.13 | 0.13 | 92 | 1012.7 |
| 20260509140310 | 15 | 269 | 1.6 | 6.4 | 0.05 | 0.13 | 0.13 | 92 | 1012.8 |
| 20260509135310 | 15 | 60 | 1.6 | 8.0 | 0.05 | 0.13 | 0.13 | 93 | 1012.9 |
| 20260509134310 | 14 | 13 | 1.6 | 11.3 | 0.05 | 0.13 | 0.13 | 93 | 1012.9 |
| 20260509133310 | 14 | 314 | 1.6 | 8.0 | 0.08 | 0.13 | 0.13 | 92 | 1012.9 |
| 20260509132310 | 14 | 58 | 6.4 | 14.5 | 0.08 | 0.13 | 0.13 | 92 | 1012.9 |
| 20260509131311 | 14 | 42 | 4.8 | 11.3 | 0.08 | 0.13 | 0.13 | 91 | 1012.9 |
| 20260509130310 | 14 | 84 | 8.0 | 11.3 | 0.05 | 0.08 | 0.08 | 90 | 1012.9 |
| 20260509124310 | 14 | 49 | 6.4 | 17.7 | 0.03 | 0.05 | 0.05 | 90 | 1013.1 |
| 20260509123311 | 14 | 108 | 11.3 | 19.3 | 0.00 | 0.05 | 0.05 | 89 | 1013.0 |
| 20260509122310 | 14 | 105 | 11.3 | 22.5 | 0.00 | 0.05 | 0.05 | 89 | 1013.0 |
| 20260509120311 | 15 | 88 | 9.7 | 19.3 | 0.00 | 0.05 | 0.05 | 87 | 1013.0 |
| 20260509115310 | 15 | 63 | 14.5 | 19.3 | 0.00 | 0.05 | 0.05 | 86 | 1012.9 |
| 20260509114310 | 15 | 88 | 11.3 | 19.3 | 0.00 | 0.05 | 0.05 | 85 | 1013.0 |
| 20260509113310 | 15 | 54 | 11.3 | 22.5 | 0.00 | 0.05 | 0.05 | 85 | 1012.9 |
| 20260509112310 | 15 | 58 | 14.5 | 19.3 | 0.00 | 0.05 | 0.05 | 84 | 1013.1 |
| 20260509111310 | 16 | 86 | 12.9 | 22.5 | 0.00 | 0.05 | 0.05 | 84 | 1013.1 |
| 20260509110311 | 15 | 72 | 11.3 | 22.5 | 0.00 | 0.05 | 0.05 | 85 | 1013.1 |
| 20260509105310 | 15 | 94 | 12.9 | 22.5 | 0.00 | 0.05 | 0.05 | 85 | 1013.0 |
| 20260509104310 | 15 | 52 | 12.9 | 24.1 | 0.00 | 0.05 | 0.05 | 84 | 1013.1 |